Seattle, WA

10:37 PM PDT on April 21, 2018 (GMT -0700)
Seattle-Tacoma International

Weather History for KSEA - June, 2013

Change the Weather History Date:

Saturday, June 22, 2013

  Actual Average Record
Temperature  
Mean Temperature 66 °F 62 °F  
Max Temperature 78 °F 71 °F 92 °F (1992)
Min Temperature 53 °F 53 °F 45 °F (1952)
Degree Days  
Heating Degree Days 0 4  
Month to date heating degree days 48 117  
Since 1 June heating degree days 48 117  
Since 1 July heating degree days 4331 4670  
Cooling Degree Days 1 1  
Month to date cooling degree days 12 10  
Year to date cooling degree days 25 16  
Since 1 June cooling degree days 12 10  
Growing Degree Days 16 (Base 50)    
Moisture  
Dew Point 50 °F    
Average Humidity 62    
Maximum Humidity 89    
Minimum Humidity 35    
Precipitation  
Precipitation 0.00 in 0.04 in 0.62 in (2012)
Month to date precipitation 0.19 1.26  
Year to date precipitation 16.94 18.70  
Sea Level Pressure  
Sea Level Pressure 30.03 in    
Wind  
Wind Speed 4 mph (WNW)    
Max Wind Speed 10 mph    
Max Gust Speed 16 mph    
Visibility 10 miles    
Events      
T = Trace of Precipitation, MM = Missing Value Source: NWS Daily Summary

Daily Weather History Graph

Daily Weather History Graph

Search for Another Location

Airport or City:

Astronomy

Jun. 22, 2013 Rise Set
Actual Time 5:12 AM PDT 9:10 PM PDT
Civil Twilight 4:31 AM PDT 9:50 PM PDT
Nautical Twilight 3:35 AM PDT 10:46 PM PDT
Astronomical Twilight 2:07 AM PDT 12:15 AM PDT
Moon 8:25 PM PDT 4:35 AM PDT
Length of Visible Light 17h 18m
Length of Day
15h 57m
Waxing Gibbous, 99% of the Moon is Illuminated
Jun 22
Waxing Gibbous
Jun 23
Full
Jun 29
Last Quarter
Jul 8
New
Jul 15
First Quarter

Hourly Weather History & Observations

Time (PDT) Temp. Dew Point Humidity Pressure Visibility Wind Dir Wind Speed Gust Speed Precip Events Conditions
12:53 AM 55.0 °F 50.0 °F 83% 30.15 in 10.0 mi West 3.5 mph - N/A   Partly Cloudy
1:53 AM 55.0 °F 50.0 °F 83% 30.15 in 10.0 mi West 4.6 mph - N/A   Partly Cloudy
2:53 AM 54.0 °F 50.0 °F 86% 30.14 in 10.0 mi Calm Calm - N/A   Partly Cloudy
3:53 AM 55.0 °F 50.0 °F 83% 30.13 in 10.0 mi ENE 3.5 mph - N/A   Clear
4:53 AM 54.0 °F 50.0 °F 86% 30.12 in 10.0 mi Calm Calm - N/A   Scattered Clouds
5:53 AM 55.0 °F 50.0 °F 83% 30.12 in 10.0 mi Calm Calm - N/A   Scattered Clouds
6:53 AM 55.9 °F 51.1 °F 84% 30.12 in 10.0 mi Calm Calm - N/A   Scattered Clouds
7:53 AM 60.1 °F 51.1 °F 72% 30.11 in 10.0 mi Variable 3.5 mph - N/A   Scattered Clouds
8:53 AM 63.0 °F 52.0 °F 67% 30.10 in 10.0 mi Calm Calm - N/A   Scattered Clouds
9:53 AM 64.9 °F 52.0 °F 63% 30.09 in 10.0 mi Variable 5.8 mph - N/A   Scattered Clouds
10:53 AM 66.9 °F 51.1 °F 57% 30.07 in 10.0 mi Calm Calm - N/A   Scattered Clouds
11:53 AM 70.0 °F 48.9 °F 47% 30.05 in 10.0 mi West 6.9 mph - N/A   Scattered Clouds
12:53 PM 73.9 °F 48.0 °F 40% 30.04 in 10.0 mi Variable 5.8 mph - N/A   Scattered Clouds
1:53 PM 73.9 °F 45.0 °F 35% 30.02 in 10.0 mi Variable 5.8 mph - N/A   Mostly Cloudy
2:53 PM 73.9 °F 46.0 °F 37% 30.00 in 10.0 mi Variable 4.6 mph - N/A   Mostly Cloudy
3:53 PM 75.9 °F 48.9 °F 38% 29.99 in 10.0 mi WSW 6.9 mph - N/A   Mostly Cloudy
4:53 PM 77.0 °F 50.0 °F 39% 29.96 in 10.0 mi SW 8.1 mph - N/A   Scattered Clouds
5:53 PM 75.9 °F 48.9 °F 38% 29.94 in 10.0 mi West 3.5 mph - N/A   Scattered Clouds
6:53 PM 75.9 °F 48.9 °F 38% 29.92 in 10.0 mi West 5.8 mph - N/A   Scattered Clouds
7:53 PM 75.9 °F 50.0 °F 40% 29.91 in 10.0 mi WSW 3.5 mph - N/A   Scattered Clouds
8:53 PM 73.9 °F 50.0 °F 43% 29.91 in 10.0 mi Calm Calm - N/A   Mostly Cloudy
9:53 PM 70.0 °F 50.0 °F 49% 29.91 in 10.0 mi NNW 6.9 mph - N/A   Mostly Cloudy
10:53 PM 66.9 °F 51.1 °F 57% 29.90 in 10.0 mi NNW 5.8 mph - N/A   Mostly Cloudy
11:53 PM 66.0 °F 51.1 °F 59% 29.88 in 10.0 mi NNW 6.9 mph - N/A   Mostly Cloudy